Location: Horowhenua
(40.7500°S, 175.3333°E)
Time: 12:43:09
(UTC+00:00)

SL-19 R/B - Pass Details

Date: 28 January 2023
Orbit: 795 x 1009 km, 99.5° (Epoch: 28 March)

Event Time Altitude Azimuth Distance (km) Brightness Sun altitude
Exits shadow 15:26:36 22° 357° (N) 1,891 5.6 -18.5°
Maximum altitude 15:30:23 60° 283° (WNW) 1,006 4.3 -18.0°
Drops below altitude 10° 15:35:52 10° 202° (SSW) 2,496 6.9 -17.2°
Sets 15:38:14 0° 198° (SSW) 3,413 7.7 -16.9°
